Tracking 35334 objects as of 13-Sep-2026
HD Live streaming from Space Station
objects crossing your sky now

DELTA 2 R/B(2) (PAM-D)


DELTA 2 R/B(2) (PAM-D) is no longer on orbit


NORAD ID: 21932
Int'l Code: 1992-019C
Launch date: April 10, 1992
Source: United States (US)
Launch site: AIR FORCE EASTERN TEST RANGE (AFETR)
Decay date: 1998-08-16

Note: This is a ROCKET BODY
Your satellite tracking list
Your tracking list is empty




NASA's NSSDC Master Catalog

Two Line Element Set (TLE):
1 21932U 92019C   98228.40595927  .42093575 -71357-6  81903-3 0  9997
2 21932 034.2918 187.0104 0096152 173.7679 186.4232 16.31373000150017
Source of the keplerian elements: AFSPC